Skip Page Navigation
NASA JPL Caltech
NASA Logo - Jet Propulsion Laboratory + View the NASA Portal
+ Center for Near-Earth Object Studies
JPL Home Earth Solar System Stars & Galaxies Technology
JPL Solar System Dynamics
BODIES ORBITS EPHEMERIDES TOOLS PHYSICAL DATA DISCOVERY FAQ SITE MAP
JPL Small-Body Database Browser
Search: [ help ]  
160058 (1999 VV36)
Classification: Main-belt Asteroid          SPK-ID: 2160058
Ephemeris | Orbit Diagram | Orbital Elements | Mission Design | Physical Parameters | Discovery Circumstances ]

[ show orbit diagram ]
Orbital Elements at Epoch 2459200.5 (2020-Dec-17.0) TDB
Reference: JPL 17 (heliocentric ecliptic J2000)
 Element Value Uncertainty (1-sigma)   Units 
e .288471921074018 3.9664e-08  
a 2.622524769753554 8.7179e-09 au
q 1.866000011358549 1.0261e-07 au
i 5.578774837266997 5.1795e-06 deg
node 76.99855472454445 5.0069e-05 deg
peri 261.992532859762 5.1116e-05 deg
M 42.4382626792865 9.9351e-06 deg
tp 2459017.634018672414
(2020-Jun-17.13401867)
4.2551e-05 TDB
period 1551.235821678968
4.25
7.735e-06
2.118e-08
d
yr
n .2320730316879589 1.1572e-09 deg/d
Q 3.379049528148559 1.1233e-08 au
  Orbit Determination Parameters
   # obs. used (total)      750  
   data-arc span      7739 days (21.19 yr)  
   first obs. used      1999-11-03  
   last obs. used      2021-01-10  
   planetary ephem.      DE431  
   SB-pert. ephem.      SB431-N16  
   condition code      0  
   norm. resid. RMS      .44485  
   source      ORB  
   producer      Otto Matic  
   solution date      2021-Feb-24 11:00:53  

Additional Information
 Earth MOID = .865357 au 
 Jupiter MOID = 2.05111 au 
 T_jup = 3.337 
[ show covariance matrix ]

Ephemeris | Orbit Diagram | Orbital Elements | Mission Design | Physical Parameters | Discovery Circumstances ]

Physical Parameter Table
Parameter Symbol Value Units Sigma Reference Notes
absolute magnitude H 15.87   n/a E2021B55  

160058 (1999 VV36)          Discovered 1999-Nov-03 by LINEAR at Socorro
Reference: 20070730/Numbers.arcLast Updated: 2007-08-06
Ephemeris | Orbit Diagram | Orbital Elements | Mission Design | Physical Parameters | Discovery Circumstances ]
ABOUT SSD CREDITS/AWARDS PRIVACY/COPYRIGHT GLOSSARY LINKS
FirstGov 2021-Apr-11 10:57 UT
(server date/time)  
NASA Home Page
Site Manager:   Ryan S. Park
Webmaster  Alan B. Chamberlin